Regional Weather Roundup
Issued by NWS

Home | Current Version | Previous Version | Graphics & Text | Print | Product List | Glossary On
Versions: 1 2 3 4 5 6 7 8 9 10 11 12 13 14 15 16 17 18 19 20 21 22 23 24 25 26 27 28 29 30 31 32 33 34 35 36 37 38 39 40 41 42 43 44 45 46 47 48 49 50
000
ASUS43 KDTX 271110
RWRMI
MICHIGAN HOURLY REGIONAL WEATHER ROUNDUP
NATIONAL WEATHER SERVICE DETROIT/PONTIAC MI
600 AM EST MON FEB 27 2017

NOTE: "FAIR" INDICATES FEW OR NO CLOUDS BELOW 12,000 FEET WITH NO
SIGNIFICANT WEATHER AND/OR OBSTRUCTION TO VISIBILITY.

MIZ047>049-052>055-059>063-066>070-074>076-081>083-271200-
SOUTHEAST LOWER MICHIGAN

CITY           SKY/WX    TMP DP  RH WIND       PRES   REMARKS
ADRIAN         CLOUDY    30  24  78 SW6       30.17R WCI  24
ALMA           CLEAR     33  25  72 W6        30.12R WCI  27
ANN ARBOR      CLEAR     29  23  78 CALM      30.15R
BAD AXE        MOCLDY    32  25  76 SW5       30.10R WCI  27
CARO           PTCLDY    34  26  72 SW8       30.10R WCI  27
DETROIT CITY   CLOUDY    34  23  64 SW8       30.16R WCI  27
DETROIT        CLOUDY    32  24  72 S8        30.17R WCI  25
FLINT          CLEAR     34  24  67 SW9       30.12R WCI  27
GROSSE ILE     CLOUDY    34  24  66 SW7       30.17R WCI  28
HILLSDALE      CLEAR     32  23  69 SW6       30.13S WCI  26
HOWELL         CLEAR     33  23  65 SW7       30.12R WCI  27

CITY           SKY/WX    TMP DP  RH WIND       PRES   REMARKS
JACKSON        PTCLDY    35  23  61 SW9       30.13R WCI  28
LAMBERTVILLE   CLOUDY    34  23  62 SW6       30.18R WCI  29
LANSING        CLEAR     32  22  66 SW6       30.12R WCI  26
LAPEER         FAIR      36  26  67 SW8       30.11R WCI  29
MASON          CLEAR     34  25  70 SW6       30.12R WCI  29
MONROE         CLOUDY    33  24  68 SW6       30.17R WCI  28
MT. CLEMENS    CLEAR     34  23  65 SW9       30.13R WCI  26
PONTIAC        CLEAR     33  22  63 S5        30.11R WCI  29
PORT HOPE        N/A     35  27  72 W5        30.08R WCI  31
PORT HURON     CLEAR     34  23  64 SW7       30.14R WCI  28
TRI CITIES     CLEAR     32  27  81 W9        30.12R WCI  24
MIDLAND        FAIR      33  24  72 W5        30.11R WCI  28
TROY           CLEAR     33  22  64 SW5       30.16R WCI  28
SAGINAW HB     MOCLDY    34  27  75 W6        30.11R WCI  29
$$
MIZ043>046-050>051-056>058-064>065-071>073-077>080-271200-
SOUTHWEST LOWER MICHIGAN

CITY           SKY/WX    TMP DP  RH WIND       PRES   REMARKS
BATTLE CREEK   CLEAR     32  24  72 SW9       30.13R WCI  24
BENTON HARBOR  CLEAR     34  27  75 SW6       30.14R WCI  29
BIG RAPIDS     CLEAR     28  24  83 CALM      30.08R
COLDWATER      CLEAR     33  24  69 SW7       30.15R WCI  26
FREMONT        FAIR      29  25  84 CALM      30.10R
HOLLAND        CLEAR     31  26  82 S3        30.13R
GRAND RAPIDS   CLEAR     31  27  85 W7        30.11R WCI  24
IONIA          FAIR      32  28  85 W7        30.11R WCI  26
KALAMAZOO      CLEAR     33  22  63 SW6       30.13R WCI  28
LUDINGTON      CLEAR     27  25  92 CALM      30.10R
MARSHALL       CLEAR     33  23  67 SW6       30.12R WCI  28
MOUNT PLEASANT CLEAR     31  25  80 SW3       30.10R
MUSKEGON       CLEAR     33  26  75 VRB3      30.12R
SOUTH HAVEN    CLEAR     36  31  82 SW5       30.12S WCI  32
$$
MIZ016>042-271200-
NORTHERN LOWER MICHIGAN

CITY           SKY/WX    TMP DP  RH WIND       PRES   REMARKS
ALPENA         PTCLDY    23  18  81 CALM      30.09R
BEAVER ISLAND  CLEAR     22  15  72 CALM      30.08R
BELLAIRE       MOCLDY    25  17  73 CALM      30.10R
CADILLAC       CLEAR     20  18  92 N3        30.06R
CHARLEVOIX     CLEAR     24  13  62 NW5       30.12R WCI  19
FRANKFORT      PTCLDY    22  17  81 CALM      30.10R
GAYLORD        CLOUDY    22  14  71 CALM      30.04R
GRAYLING       CLOUDY    25  16  67 CALM      30.08R
HARBOR SPRINGS CLEAR     18  13  80 CALM      30.08R
HOUGHTON LAKE  CLEAR     24  18  77 CALM      30.07R
MANISTEE       PTCLDY    26  21  81 CALM      30.10R
OSCODA         PTCLDY    29  22  74 N3        30.09R
PELLSTON       PTCLDY    13   8  81 CALM      30.09R
ROGERS CITY    CLEAR     20  16  83 SW3       30.10R
TRAVERSE CITY  CLOUDY    28  15  58 CALM      30.09R
$$
MIZ007>008-015-271200-
EASTERN UPPER MICHIGAN

CITY           SKY/WX    TMP DP  RH WIND       PRES   REMARKS
KINROSS        CLEAR     11   9  92 SW7       30.05R WCI   0
MACKINAC ISLAN CLEAR     21  16  81 W7        30.07R WCI  12
NEWBERRY       CLEAR      8   7  97 SW5       30.04R WCI   0
S. S. MARIE    MIX PCPN  23  14  68 NW6       30.03R WCI  16
MUNISING         N/A     10   6  84 S8        30.06R WCI  -2
$$
MIZ004>006-011>014-085-271200-
CENTRAL UPPER MICHIGAN

CITY           SKY/WX    TMP DP  RH WIND       PRES   REMARKS
MANISTIQUE     CLEAR     11   8  87 W3        30.07R
ESCANABA       CLEAR      6   2  83 CALM      30.09R
MENOMINEE      MOCLDY    16  11  80 CALM      30.10R
SAWYER-GWINN   CLEAR      3   1  88 CALM      30.03R
$$
MIZ001>003-009>011-084-271200-
WESTERN UPPER MICHIGAN

CITY           SKY/WX    TMP DP  RH WIND       PRES   REMARKS
IRON MOUNTAIN  CLEAR      2  -2  83 CALM      30.01S
HOUGHTON       CLEAR     10   2  69 CALM      29.97R
COPPER HARBOR    N/A     13   5  70 SW7       30.01R WCI   3
IRONWOOD       CLOUDY    13   5  70 SE5       29.98S WCI   5
$$

ABBREVIATIONS USED IN REMARKS
   TC - TEMPERATURE IN CELSIUS
  WCI - WIND CHILL INDEX
   HX - HEAT INDEX
  VSB - VISIBILITY





USA.gov is the U.S. government's official web portal to all federal, state and local government web resources and services.